• în România
  • Lista ţărilor
  • Pe 7 zile
  • Temperatura apei
  • Hartă satelitară
  • Meteo pe hartă
  • Widget-uri
  • user-avatar
    Intrare

    Meteo pe oră la Puerto Ayacucho

    Astăzi, 22 Septembrie, Sâmbătă

    Timp Temperatura Precipitaţii Vânt Presiune Umiditate
    00:00 +27°C° 0.5 mm 1 m/s 752 mmHg 92%
    01:00 +26°C° 0.5 mm 1 m/s 751 mmHg 93%
    02:00 +26°C° 0.2 mm 1 m/s 751 mmHg 93%
    03:00 +26°C° 0.2 mm 1 m/s 751 mmHg 93%
    04:00 +26°C° 0.2 mm 2 m/s 751 mmHg 92%
    05:00 +27°C° 0 mm 1 m/s 751 mmHg 90%
    06:00 +27°C° 0 mm 1 m/s 752 mmHg 87%
    07:00 +28°C° 0 mm 1 m/s 752 mmHg 84%
    08:00 +29°C° 0.4 mm 1 m/s 752 mmHg 79%
    09:00 +31°C° 0.4 mm 1 m/s 752 mmHg 74%
    10:00 +32°C° 0.4 mm 1 m/s 752 mmHg 69%
    11:00 +33°C° 0.8 mm 1 m/s 751 mmHg 68%
    12:00 +33°C° 0.8 mm 1 m/s 750 mmHg 68%
    13:00 +34°C° 0.8 mm 1 m/s 749 mmHg 68%
    14:00 +33°C° 1.1 mm 1 m/s 749 mmHg 71%
    15:00 +32°C° 1.1 mm 1 m/s 749 mmHg 74%
    16:00 +30°C° 1.1 mm 0 m/s 749 mmHg 77%
    17:00 +31°C° 3 mm 1 m/s 749 mmHg 80%
    18:00 +29°C° 3 mm 1 m/s 750 mmHg 83%
    19:00 +28°C° 3 mm 1 m/s 750 mmHg 87%
    20:00 +28°C° 4 mm 1 m/s 751 mmHg 88%
    21:00 +27°C° 4 mm 1 m/s 751 mmHg 90%
    22:00 +27°C° 4 mm 1 m/s 752 mmHg 92%
    23:00 +27°C° 2.6 mm 1 m/s 751 mmHg 93%

    Mâine, 23 Septembrie, Duminică

    Timp Temperatura Precipitaţii Vânt Presiune Umiditate
    00:00 +26°C° 2.6 mm 1 m/s 751 mmHg 93%
    01:00 +26°C° 2.6 mm 1 m/s 751 mmHg 94%
    02:00 +26°C° 0.2 mm 1 m/s 750 mmHg 94%
    03:00 +26°C° 0.2 mm 1 m/s 750 mmHg 93%
    04:00 +26°C° 0.2 mm 1 m/s 750 mmHg 93%
    05:00 +26°C° 0 mm 1 m/s 751 mmHg 91%
    06:00 +27°C° 0 mm 1 m/s 751 mmHg 88%
    07:00 +28°C° 0 mm 1 m/s 752 mmHg 86%
    08:00 +29°C° 0.7 mm 1 m/s 752 mmHg 82%
    09:00 +30°C° 0.7 mm 2 m/s 752 mmHg 78%
    10:00 +32°C° 0.7 mm 2 m/s 752 mmHg 74%
    11:00 +32°C° 1 mm 2 m/s 751 mmHg 71%
    12:00 +33°C° 1 mm 1 m/s 750 mmHg 69%
    13:00 +33°C° 1 mm 1 m/s 749 mmHg 66%
    14:00 +33°C° 1.3 mm 1 m/s 749 mmHg 69%
    15:00 +32°C° 1.3 mm 1 m/s 749 mmHg 72%
    16:00 +32°C° 1.3 mm 1 m/s 749 mmHg 76%
    17:00 +30°C° 2.8 mm 1 m/s 749 mmHg 80%
    18:00 +29°C° 2.8 mm 1 m/s 750 mmHg 84%
    19:00 +28°C° 2.8 mm 1 m/s 751 mmHg 88%
    20:00 +27°C° 0.8 mm 1 m/s 751 mmHg 88%
    21:00 +27°C° 0.8 mm 1 m/s 752 mmHg 89%
    22:00 +27°C° 0.8 mm 1 m/s 752 mmHg 90%
    23:00 +27°C° 0.1 mm 1 m/s 752 mmHg 90%

    Poimâine, 24 Septembrie, Luni

    Timp Temperatura Precipitaţii Vânt Presiune Umiditate
    00:00 +26°C° 0.1 mm 1 m/s 751 mmHg 90%
    01:00 +26°C° 0.1 mm 1 m/s 751 mmHg 90%
    02:00 +26°C° 0 mm 1 m/s 751 mmHg 90%
    03:00 +26°C° 0 mm 2 m/s 751 mmHg 90%
    04:00 +25°C° 0 mm 2 m/s 751 mmHg 90%
    05:00 +26°C° 0 mm 2 m/s 751 mmHg 87%
    06:00 +27°C° 0 mm 2 m/s 752 mmHg 84%
    07:00 +28°C° 0 mm 2 m/s 752 mmHg 81%
    08:00 +30°C° 0.3 mm 2 m/s 752 mmHg 76%
    09:00 +31°C° 0.3 mm 2 m/s 752 mmHg 72%
    10:00 +34°C° 0.3 mm 2 m/s 752 mmHg 68%
    11:00 +34°C° 1 mm 2 m/s 751 mmHg 68%
    12:00 +34°C° 1 mm 2 m/s 751 mmHg 69%
    13:00 +34°C° 1 mm 2 m/s 750 mmHg 69%
    14:00 +32°C° 2.9 mm 2 m/s 750 mmHg 74%
    15:00 +32°C° 2.9 mm 2 m/s 749 mmHg 78%
    16:00 +31°C° 2.9 mm 2 m/s 749 mmHg 83%
    17:00 +30°C° 1.7 mm 2 m/s 750 mmHg 85%
    18:00 +29°C° 1.7 mm 2 m/s 751 mmHg 88%
    19:00 +27°C° 1.7 mm 1 m/s 751 mmHg 90%
    20:00 +27°C° 0.8 mm 2 m/s 752 mmHg 91%
    21:00 +27°C° 0.8 mm 2 m/s 752 mmHg 92%
    22:00 +27°C° 0.8 mm 2 m/s 752 mmHg 93%
    23:00 +27°C° 0 mm 2 m/s 752 mmHg 93%

    25 Septembrie, Marţi

    Timp Temperatura Precipitaţii Vânt Presiune Umiditate
    00:00 +26°C° 0 mm 2 m/s 751 mmHg 93%
    01:00 +26°C° 0 mm 2 m/s 751 mmHg 93%
    02:00 +26°C° 0 mm 2 m/s 751 mmHg 93%
    03:00 +26°C° 0 mm 2 m/s 751 mmHg 92%
    04:00 +26°C° 0 mm 2 m/s 751 mmHg 92%
    05:00 +27°C° 0 mm 2 m/s 752 mmHg 90%
    06:00 +27°C° 0 mm 2 m/s 752 mmHg 87%
    07:00 +28°C° 0 mm 2 m/s 753 mmHg 85%
    08:00 +29°C° 0.2 mm 2 m/s 752 mmHg 82%
    09:00 +30°C° 0.2 mm 2 m/s 752 mmHg 80%
    10:00 +31°C° 0.2 mm 2 m/s 752 mmHg 77%
    11:00 +32°C° 1.2 mm 2 m/s 751 mmHg 75%
    12:00 +32°C° 1.2 mm 2 m/s 750 mmHg 74%
    13:00 +34°C° 1.2 mm 2 m/s 749 mmHg 72%
    14:00 +33°C° 1.3 mm 1 m/s 749 mmHg 72%
    15:00 +32°C° 1.3 mm 1 m/s 749 mmHg 72%
    16:00 +32°C° 1.3 mm 1 m/s 749 mmHg 72%
    17:00 +31°C° 0.5 mm 1 m/s 749 mmHg 76%
    18:00 +30°C° 0.5 mm 2 m/s 750 mmHg 79%
    19:00 +28°C° 0.5 mm 2 m/s 751 mmHg 83%
    20:00 +28°C° 0.8 mm 2 m/s 751 mmHg 86%
    21:00 +27°C° 0.8 mm 2 m/s 752 mmHg 88%
    22:00 +27°C° 0.8 mm 2 m/s 752 mmHg 91%
    23:00 +27°C° 0.4 mm 2 m/s 751 mmHg 91%

    26 Septembrie, Miercuri

    Timp Temperatura Precipitaţii Vânt Presiune Umiditate
    00:00 +26°C° 0.4 mm 1 m/s 751 mmHg 91%
    01:00 +26°C° 0.4 mm 1 m/s 750 mmHg 91%
    02:00 +26°C° 0 mm 1 m/s 750 mmHg 91%
    03:00 +26°C° 0 mm 1 m/s 750 mmHg 91%
    04:00 +26°C° 0 mm 1 m/s 750 mmHg 91%
    05:00 +26°C° 0.1 mm 1 m/s 751 mmHg 89%
    06:00 +27°C° 0.1 mm 2 m/s 751 mmHg 87%
    07:00 +28°C° 0.1 mm 2 m/s 751 mmHg 85%
    08:00 +29°C° 0.1 mm 2 m/s 751 mmHg 78%
    09:00 +31°C° 0.1 mm 2 m/s 751 mmHg 72%
    10:00 +32°C° 0.1 mm 2 m/s 751 mmHg 66%
    11:00 +34°C° 0.4 mm 2 m/s 750 mmHg 66%
    12:00 +34°C° 0.4 mm 2 m/s 749 mmHg 66%
    13:00 +35°C° 0.4 mm 2 m/s 748 mmHg 66%
    14:00 +33°C° 1.4 mm 1 m/s 748 mmHg 68%
    15:00 +33°C° 1.4 mm 1 m/s 748 mmHg 70%
    16:00 +33°C° 1.4 mm 1 m/s 747 mmHg 72%
    17:00 +31°C° 2.6 mm 1 m/s 748 mmHg 77%
    18:00 +30°C° 2.6 mm 1 m/s 749 mmHg 82%
    19:00 +28°C° 2.6 mm 2 m/s 750 mmHg 87%
    20:00 +28°C° 2.2 mm 2 m/s 750 mmHg 89%
    21:00 +27°C° 2.2 mm 2 m/s 751 mmHg 91%
    22:00 +27°C° 2.2 mm 2 m/s 751 mmHg 93%
    23:00 +27°C° 0.3 mm 2 m/s 750 mmHg 93%

    27 Septembrie, Joi

    Timp Temperatura Precipitaţii Vânt Presiune Umiditate
    00:00 +27°C° 0.3 mm 1 m/s 750 mmHg 93%
    01:00 +26°C° 0.3 mm 1 m/s 749 mmHg 93%
    02:00 +26°C° 0 mm 1 m/s 749 mmHg 92%
    03:00 +26°C° 0 mm 1 m/s 749 mmHg 92%
    04:00 +26°C° 0 mm 2 m/s 749 mmHg 91%
    05:00 +27°C° 0 mm 2 m/s 750 mmHg 88%
    06:00 +28°C° 0 mm 2 m/s 750 mmHg 85%
    07:00 +28°C° 0 mm 2 m/s 751 mmHg 83%
    08:00 +30°C° 0.3 mm 2 m/s 751 mmHg 78%
    09:00 +32°C° 0.3 mm 2 m/s 751 mmHg 73%
    10:00 +34°C° 0.3 mm 2 m/s 751 mmHg 68%
    11:00 +35°C° 0.8 mm 2 m/s 750 mmHg 66%
    12:00 +35°C° 0.8 mm 2 m/s 749 mmHg 65%
    13:00 +35°C° 0.8 mm 2 m/s 748 mmHg 63%
    14:00 +33°C° 2.7 mm 1 m/s 748 mmHg 69%
    15:00 +32°C° 2.7 mm 1 m/s 747 mmHg 74%
    16:00 +31°C° 2.7 mm 1 m/s 747 mmHg 79%
    17:00 +30°C° 2 mm 1 m/s 748 mmHg 82%
    18:00 +29°C° 2 mm 1 m/s 749 mmHg 85%
    19:00 +28°C° 2 mm 1 m/s 750 mmHg 88%
    20:00 +28°C° 1.2 mm 1 m/s 750 mmHg 89%
    21:00 +28°C° 1.2 mm 1 m/s 751 mmHg 90%
    22:00 +27°C° 1.2 mm 1 m/s 751 mmHg 91%
    23:00 +27°C° 1.6 mm 1 m/s 751 mmHg 92%
    Arată mai mult